Weather History for KEMP - January, 2013

Change the Weather History Date:

Tuesday, January 1, 2013

  Actual Average Record
Temperature  
Mean Temperature 18 °F 31 °F  
Max Temperature 26 °F 41 °F 68 °F (2006)
Min Temperature 9 °F 21 °F 1 °F (2001)
Degree Days  
Heating Degree Days 47 34  
Month to date heating degree days 47 34  
Since 1 July heating degree days 1803 1967  
Cooling Degree Days 0 0  
Month to date cooling degree days 0 0  
Year to date cooling degree days 0 0  
Moisture  
Dew Point 13 °F    
Average Humidity 71    
Maximum Humidity 92    
Minimum Humidity 50    
Precipitation  
Precipitation T in 0.01 in 0.09 in (1999)
Month to date precipitation T 0.01  
Year to date precipitation T 0.01  
Sea Level Pressure  
Sea Level Pressure 30.27 in    
Wind  
Wind Speed 8 mph (NNW)    
Max Wind Speed 23 mph    
Max Gust Speed 25 mph    
Visibility 8 miles    
Events Rain    
T = Trace of Precipitation, MM = Missing Value Source: NWS Daily Summary

Daily Weather History Graph

Daily Weather History Graph

Search for Another Location

Airport or City:

Trip Planner

Search our weather history database for the weather conditions in past years. The results will help you decide how hot, cold, wet, or windy it might be!

Date:

Astronomy

Jan. 01, 2013 Rise Set
Actual Time 7:41 AM CST 5:15 PM CST
Civil Twilight 7:12 AM CST 5:44 PM CST
Nautical Twilight 6:39 AM CST 6:18 PM CST
Astronomical Twilight 6:07 AM CST 6:50 PM CST
Moon 9:43 PM CST (1/1) 9:58 AM CST (1/1)
Length of Visible Light 10h 32m
Length of Day
9h 33m
Waning Gibbous, 83% of the Moon is Illuminated
Jan 1
Waning Gibbous
Jan 4
Last Quarter
Jan 11
New
Jan 18
First Quarter
Jan 26
Full

Hourly Weather History & Observations

Time (CST) Temp. Windchill Dew Point Humidity Pressure Visibility Wind Dir Wind Speed Gust Speed Precip Events Conditions
12:01 AM 23.0 °F 12.4 °F 19.4 °F 86% 30.16 in 5.0 mi North 10.4 mph - N/A   Overcast
12:53 AM 21.9 °F 9.2 °F 19.0 °F 89% 30.21 in 5.0 mi NNE 13.8 mph - 0.00 in   Overcast
1:03 AM 21.2 °F 8.3 °F 19.4 °F 93% 30.16 in 4.0 mi NNE 13.8 mph - 0.00 in Rain Light Freezing Rain
1:34 AM 21.2 °F 10.1 °F 19.4 °F 93% 30.16 in 7.0 mi NNE 10.4 mph - 0.00 in   Overcast
1:45 AM 21.2 °F 10.1 °F 19.4 °F 93% 30.16 in 7.0 mi NNE 10.4 mph - 0.00 in   Overcast
1:53 AM 21.9 °F 12.5 °F 19.0 °F 89% 30.21 in 7.0 mi NNE 8.1 mph - 0.00 in   Overcast
2:08 AM 21.2 °F 8.3 °F 19.4 °F 93% 30.16 in 6.0 mi NNE 13.8 mph - N/A   Overcast
2:53 AM 21.0 °F 9.3 °F 19.0 °F 92% 30.23 in 6.0 mi North 11.5 mph - N/A   Overcast
3:53 AM 19.9 °F 7.3 °F 17.1 °F 89% 30.22 in 8.0 mi NNE 12.7 mph - N/A   Overcast
4:30 AM 19.4 °F 6.0 °F 15.8 °F 86% 30.17 in 9.0 mi NNE 13.8 mph - N/A   Overcast
4:53 AM 19.0 °F 6.1 °F 15.1 °F 85% 30.24 in 9.0 mi North 12.7 mph - N/A   Overcast
5:53 AM 19.0 °F 6.1 °F 12.9 °F 77% 30.25 in 10.0 mi North 12.7 mph - N/A   Overcast
6:53 AM 18.0 °F 8.7 °F 12.9 °F 81% 30.29 in 10.0 mi North 6.9 mph - N/A   Overcast
7:22 AM 19.4 °F 9.5 °F 12.2 °F 74% 30.25 in 10.0 mi North 8.1 mph - N/A   Overcast
7:35 AM 19.4 °F 7.9 °F 12.2 °F 74% 30.25 in 10.0 mi NNE 10.4 mph - N/A   Overcast
7:53 AM 18.0 °F 6.1 °F 12.9 °F 81% 30.32 in 10.0 mi NNE 10.4 mph - N/A   Overcast
8:53 AM 17.1 °F 6.6 °F 12.0 °F 81% 30.33 in 10.0 mi NNE 8.1 mph - N/A   Overcast
9:53 AM 18.0 °F 7.7 °F 10.9 °F 74% 30.35 in 10.0 mi NNE 8.1 mph - N/A   Overcast
10:53 AM 21.0 °F 13.4 °F 12.9 °F 71% 30.36 in 10.0 mi North 5.8 mph - N/A   Overcast
11:53 AM 21.0 °F 11.4 °F 12.0 °F 68% 30.34 in 10.0 mi NNW 8.1 mph - N/A   Overcast
12:53 PM 23.0 °F 13.9 °F 14.0 °F 68% 30.32 in 10.0 mi NNW 8.1 mph - N/A   Overcast
1:53 PM 25.0 °F 16.3 °F 10.9 °F 55% 30.32 in 10.0 mi NNW 8.1 mph - N/A   Overcast
2:53 PM 24.1 °F 18.2 °F 9.0 °F 53% 30.31 in 10.0 mi NNW 4.6 mph - N/A   Clear
3:53 PM 24.1 °F 16.0 °F 12.0 °F 60% 30.31 in 10.0 mi NW 6.9 mph - N/A   Clear
4:53 PM 21.9 °F 17.2 °F 10.9 °F 63% 30.31 in 10.0 mi NW 3.5 mph - N/A   Clear
5:53 PM 18.0 °F 9.8 °F 10.0 °F 71% 30.31 in 10.0 mi NW 5.8 mph - N/A   Clear
6:53 PM 17.1 °F 11.7 °F 9.0 °F 71% 30.33 in 10.0 mi West 3.5 mph - N/A   Clear
7:53 PM 12.9 °F 3.8 °F 7.0 °F 77% 30.35 in 10.0 mi West 5.8 mph - N/A   Clear
8:53 PM 12.0 °F 2.7 °F 7.0 °F 80% 30.35 in 8.0 mi West 5.8 mph - N/A   Clear
9:53 PM 12.0 °F 4.1 °F 8.1 °F 84% 30.32 in 7.0 mi WSW 4.6 mph - N/A   Clear
10:53 PM 10.9 °F 2.9 °F 7.0 °F 84% 30.33 in 7.0 mi WSW 4.6 mph - N/A   Clear
11:53 PM 12.0 °F 4.1 °F 8.1 °F 84% 30.32 in 7.0 mi West 4.6 mph - N/A   Clear